#timestamp,LO_Frequency,Hit,StdDev 
1705608015.8,286046999.2,N
1705608035.7,286047000.6,N
1705608055.5,286047000.2,N
1705608075.4,286047000.6,N
1705608095.2,286047002.2,N
1705608115.0,286047001.9,N
1705608115.9,286047001.9,N
1705608135.8,286047004.1,N
1705608155.6,286047001.7,N
1705608175.5,286047003.9,N
1705608195.3,286047002.3,N
1705608215.1,286047001.1,N
1705608235.9,286047000.4,N
1705608255.7,286046999.9,N
1705608275.6,286047000.5,N
1705608295.4,286047000.4,N
1705608315.2,286047002.4,N
1705608335.1,286046999.8,N
1705608336.0,286046999.8,N
1705608355.8,286047000.5,N
1705608375.7,286047000.4,N
1705608395.5,286047000.7,N
1705608415.3,286047000.3,N
1705608435.2,286046998.8,N
1705608455.0,286046998.3,N
1705608455.9,286046998.3,N
1705608475.8,286046998.2,N
1705608495.6,286047000.7,N
1705608515.4,286046999.8,N
1705608535.3,286047002.8,N
1705608555.1,286047002.3,N
1705608575.8,286047000.4,N
1705608595.7,286047000.8,N
1705608615.5,286047002.8,N
1705608635.4,286047002.3,N
1705608655.2,286047002.7,N
1705608675.0,286047000.6,N
1705608675.9,286047000.6,N
1705608695.8,286046998.9,N
1705608715.6,286047001.2,N
1705608735.4,286047000.7,N
1705608755.3,286047000.5,N
1705608775.1,286047001.1,N
1705608795.9,286046998.5,N
1705608815.7,286047000.7,N
1705608835.5,286047001.2,N
1705608855.4,286046998.6,N
1705608875.2,286047001.2,N
1705608895.0,286047000.4,N
1705608895.9,286047000.4,N
1705608915.8,286047000.4,N
1705608935.6,286047000.0,N
1705608955.5,286047002.6,N
1705608975.3,286047001.3,N
1705608995.1,286047002.4,N
1705609015.9,286047002.7,N
1705609035.7,286047001.5,N
1705609055.5,286047002.3,N
1705609075.4,286047002.4,N
1705609095.2,286046999.8,N
1705609115.1,286047002.3,N
1705609116.0,286047002.3,N
1705609135.8,286047000.2,N
1705609155.6,286047002.7,N
1705609175.5,286046999.7,N
1705609195.3,286047002.6,N
1705609215.1,286047002.6,N
1705609235.9,286047001.5,N
1705609255.7,286047001.9,N
1705609275.6,286047001.6,N
1705609295.4,286047003.7,Y
1705609315.2,286047000.0,P
1705609335.1,286046999.7,N
1705609336.0,286046999.7,N
1705609355.8,286047000.3,N
1705609375.7,286047001.0,N
1705609395.5,286047002.5,Y
1705609415.3,286047001.6,P
1705609435.2,286047002.6,P
1705609455.0,286047001.0,N
1705609455.9,286047001.0,N
1705609475.7,286047002.8,Y
1705609495.6,286046999.0,P
1705609515.4,286046996.8,N
1705609535.3,286046997.2,N
1705609555.1,286046995.7,N
1705609575.8,286046995.4,N
1705609595.7,286046995.0,N
1705609615.5,286046996.9,N
1705609635.3,286046996.5,N
1705609655.2,286046999.4,N
1705609675.0,286046999.0,N
1705609675.9,286046999.0,N
1705609695.8,286046999.1,N
1705609715.6,286046999.5,N
1705609735.4,286046998.7,N
1705609755.3,286046998.4,N
1705609775.1,286046998.3,N
1705609795.9,286046999.7,N
1705609815.7,286046999.7,N
1705609835.5,286047000.4,N
1705609855.4,286047000.0,N
1705609875.2,286047001.6,N
1705609895.0,286047000.9,N
1705609895.9,286047000.9,N
1705609915.8,286047000.9,N
1705609935.6,286046999.1,N
1705609955.5,286046996.5,N
1705609975.3,286046997.6,N
1705609995.1,286046997.7,N
1705610015.9,286046996.8,N
1705610035.7,286046999.3,N
1705610055.6,286046998.8,N
1705610075.4,286046998.4,N
1705610095.2,286046999.4,N
1705610115.1,286046996.5,N
1705610116.0,286046996.5,N
1705610135.8,286046999.3,N
1705610155.6,286046999.8,N
1705610175.5,286047000.0,N
1705610195.3,286047000.7,N
1705610215.2,286047002.7,N
1705610235.9,286047002.8,N
1705610255.7,286047000.0,N
1705610275.6,286046999.9,N
1705610295.4,286046999.9,N
1705610315.3,286047000.7,N
1705610335.1,286047000.7,N
1705610336.0,286047000.7,N
1705610355.8,286047001.2,N
1705610375.7,286047001.0,N
1705610395.5,286046998.2,N
1705610415.3,286046998.4,N
1705610435.2,286046998.7,N
1705610455.0,286046998.4,N
1705610455.9,286046998.4,N
1705610475.8,286046999.3,N
1705610495.6,286046998.8,N
1705610515.4,286046999.0,N
1705610565.3,286046997.2,E
1705610575.2,286046999.4,N
1705610595.0,286047000.3,P
1705610596.0,286047000.3,N
1705610615.8,286047002.6,Y
1705610635.6,286047004.0,P
1705610655.5,286047001.3,N
1705610675.3,286047001.9,N
1705610695.2,286047003.8,N
1705610715.9,286047001.6,N
1705610735.7,286047002.2,N
1705610755.6,286047002.4,N
1705610775.4,286047002.4,N
1705610795.2,286047002.1,N
1705610815.1,286047002.0,N
1705610816.0,286047002.0,N
1705610835.8,286047002.2,N
1705610855.7,286047001.6,N
1705610875.5,286047001.8,N
1705610895.3,286046999.7,N
1705610915.2,286046999.7,N
1705610935.0,286047000.4,N
1705610935.9,286047000.4,N
1705610955.8,286047000.2,N
1705610975.6,286047000.7,N
1705610995.4,286047000.4,N
1705611015.3,286047001.0,N
1705611035.1,286047000.2,N
1705611055.8,286046999.8,N
1705611075.7,286047002.8,N
1705611095.5,286047002.0,N
1705611115.4,286047000.4,N
1705611135.2,286046998.2,N
1705611155.0,286047000.5,N
1705611155.9,286047000.5,N
1705611175.8,286047000.9,N
1705611195.6,286047002.7,N
1705611215.4,286046999.8,N
1705611235.3,286047002.3,N
1705611255.1,286047000.4,N
1705611275.9,286047000.4,N
1705611295.7,286046999.8,N
1705611315.5,286047002.2,N
1705611335.4,286047002.1,N
1705611355.2,286047002.8,N
1705611375.0,286046998.2,N
1705611375.9,286046998.2,N
1705611395.8,286047000.3,N
1705611415.6,286047001.1,N
1705611435.5,286046998.6,N
1705611455.3,286047000.9,N
1705611475.1,286047001.0,N
1705611495.9,286047001.2,N
1705611515.7,286047002.5,N
1705611535.5,286047002.5,N
1705611555.4,286046999.8,N
1705611575.2,286046999.9,N
1705611595.1,286047000.3,N
1705611596.0,286047000.3,N
